This is the latest recevied weather packets stored in our database for station/object DK9XR-14. If no packets are shown the sender has not sent any weather packets the latest 10 day(s).
| Time | Temp. | Humidity | Pressure | Rain* | Wind** | Luminosity | Snow |
|---|---|---|---|---|---|---|---|
| 1778005332 | 15.56° C | 69% | 1008.9 hPa | 0 mm | - | - | - |
| 1778005030 | 16.11° C | 68% | 1008.9 hPa | 0 mm | - | - | - |
| 1778004728 | 16.11° C | 68% | 1008.8 hPa | 0 mm | - | - | - |
| 1778004424 | 16.11° C | 68% | 1008.6 hPa | 0 mm | - | - | - |
| 1778004124 | 16.11° C | 67% | 1008.6 hPa | 0 mm | - | - | - |
| 1778003821 | 16.11° C | 67% | 1008.6 hPa | 0 mm | - | - | - |
| 1778003523 | 16.11° C | 66% | 1008.8 hPa | 0 mm | - | - | - |
| 1778003223 | 16.67° C | 66% | 1008.7 hPa | 0 mm | - | - | - |
| 1778002923 | 16.67° C | 66% | 1008.6 hPa | 0 mm | - | - | - |
| 1778002621 | 16.67° C | 66% | 1008.6 hPa | 0 mm | - | - | - |
| 1778002321 | 16.67° C | 64% | 1008.5 hPa | 0 mm | - | - | - |
| 1778002021 | 16.67° C | 65% | 1008.5 hPa | 0 mm | - | - | - |
| 1778001720 | 16.67° C | 64% | 1008.5 hPa | 0 mm | - | - | - |
| 1778001421 | 16.67° C | 64% | 1008.3 hPa | 0 mm | - | - | - |
| 1778001120 | 16.67° C | 64% | 1008.3 hPa | 0 mm | - | - | - |
| 1778000822 | 16.67° C | 62% | 1008.3 hPa | 0 mm | - | - | - |
| 1778000519 | 17.22° C | 60% | 1008.2 hPa | 0 mm | - | - | - |
| 1777999920 | 17.78° C | 60% | 1008.1 hPa | 0 mm | - | - | - |
| 1777999620 | 17.78° C | 61% | 1008.2 hPa | 0 mm | - | - | - |
| 1777999316 | 17.78° C | 60% | 1008.3 hPa | 0 mm | - | - | - |
| 1777999017 | 17.78° C | 61% | 1008.7 hPa | 0 mm | - | - | - |
| 1777998714 | 17.22° C | 62% | 1008.7 hPa | 0 mm | - | - | - |
| 1777998413 | 17.22° C | 60% | 1008.7 hPa | 0 mm | - | - | - |
| 1777998112 | 16.67° C | 61% | 1008.6 hPa | 0 mm | - | - | - |
| 1777997811 | 16.67° C | 62% | 1008.7 hPa | 0 mm | - | - | - |
* Rain latest hour (hover to see other rain measurements)
** Current wind speed in m/s (hover to see current wind gust speed)